Location: Codford Saint Peter
(51.1597°N, 2.0531°W)
Time: 13:43:49
(UTC+00:00)

Envisat - Pass Details

Date: 04 February 2022
Orbit: 764 x 765 km, 98.2° (Epoch: 17 May)

Event Time Altitude Azimuth Distance (km) Brightness Sun altitude
Rises 07:00:46 0° 3° (N) 3,245 6.1 -6.7°
Reaches altitude 10° 07:03:54 10° 343° (NNW) 2,315 5.2 -6.2°
Maximum altitude 07:06:54 16° 307° (NW) 1,925 4.5 -5.8°
Drops below altitude 10° 07:09:54 10° 270° (W) 2,307 4.9 -5.3°
Sets 07:13:02 0° 250° (WSW) 3,229 5.8 -4.9°
